period_start,C,m1,H,J0,J1,J2,J3,J4,J5,JA,JB,JC,JD,JJ,JK,JN,#
2014-10-10 00:05:01,0.04,1.72,0.00,23.27,27.27,30.05,4.82,23.59,1024.54,2035.98,2765.71,2856.99,3067.67,350.43,350.54,23.23,0000 0000 0000 0000 000000
2014-10-10 00:10:02,0.06,1.73,0.00,23.26,27.27,30.04,4.77,23.63,1024.47,2035.95,2765.01,2856.52,3067.02,349.48,349.43,23.26,0000 0000 0000 0000 000000
2014-10-10 00:15:03,0.05,1.73,0.00,23.27,27.27,30.03,4.80,23.70,1024.44,2035.94,2764.47,2856.01,3066.65,350.12,350.40,23.29,0000 0000 0000 0000 000000
2014-10-10 00:20:05,0.03,1.73,0.00,23.26,27.27,30.02,4.82,23.72,1024.44,2035.94,2763.95,2855.82,3066.02,350.59,350.57,23.31,0000 0000 0000 0000 000000
2014-10-10 00:25:06,0.08,1.73,0.00,23.28,27.27,30.03,4.81,23.57,1024.44,2035.93,2763.23,2855.12,3065.66,350.20,350.23,23.34,0000 0000 0000 0000 000000
2014-10-10 00:30:07,0.03,1.73,0.00,23.27,27.27,30.02,4.81,23.73,1024.43,2035.91,2762.77,2854.99,3065.03,350.10,350.15,23.37,0000 0000 0000 0000 000000
2014-10-10 00:35:09,0.06,1.73,0.00,23.26,27.28,30.01,4.79,23.69,1024.44,2035.96,2762.03,2854.62,3064.81,349.55,349.68,23.40,0000 0000 0000 0000 000000
2014-10-10 00:40:10,0.06,1.74,0.00,23.29,27.28,30.00,4.85,23.66,1024.44,2035.92,2761.41,2854.02,3064.05,350.30,350.20,23.43,0000 0000 0000 0000 000000
2014-10-10 00:45:12,0.02,1.74,0.00,23.28,27.29,30.00,4.80,23.68,1024.43,2035.96,2760.99,2853.88,3063.87,349.98,349.87,23.46,0000 0000 0000 0000 000000
2014-10-10 00:50:13,0.10,1.74,0.00,23.29,27.29,30.00,4.76,23.65,1024.43,2035.95,2760.21,2853.10,3063.08,349.75,349.91,23.49,0000 0000 0000 0000 000000
2014-10-10 00:55:14,0.04,1.74,0.00,23.29,27.30,30.02,4.82,23.68,1024.43,2035.96,2759.74,2852.97,3062.71,350.39,350.41,23.52,0000 0000 0000 0000 000000
2014-10-10 01:00:16,0.07,1.74,0.00,23.27,27.30,30.02,4.92,23.64,1024.42,2035.92,2759.05,2852.25,3062.03,350.16,349.97,23.55,0000 0000 0000 0000 000000
2014-10-10 01:05:17,0.03,1.75,0.00,23.29,27.30,30.01,4.75,23.68,1024.39,2035.92,2758.64,2852.00,3061.79,349.94,350.07,23.58,0000 0000 0000 0000 000000
2014-10-10 01:10:19,0.08,1.75,0.00,23.32,27.30,30.01,4.80,23.84,1024.19,2035.93,2758.02,2851.59,3061.07,350.34,350.01,23.61,0000 0000 0000 0000 000000
2014-10-10 01:15:20,0.06,1.75,0.00,23.32,27.30,30.00,4.78,23.76,1024.34,2035.96,2757.42,2851.02,3060.86,349.85,349.77,23.64,0000 0000 0000 0000 000000
2014-10-10 01:20:21,0.03,1.75,0.00,23.33,27.30,30.01,4.78,23.60,1024.42,2035.95,2756.89,2850.90,3060.13,349.80,349.74,23.67,0000 0000 0000 0000 000000
2014-10-10 01:25:22,0.08,1.75,0.00,23.31,27.30,30.00,4.75,23.70,1024.43,2035.95,2756.06,2850.13,3059.87,350.15,350.10,23.70,0000 0000 0000 0000 000000
2014-10-10 01:30:24,0.05,1.75,0.00,23.28,27.29,30.00,4.78,23.79,1024.43,2035.94,2755.61,2849.98,3059.08,349.93,349.92,23.73,0000 0000 0000 0000 000000
2014-10-10 01:35:25,0.06,1.76,0.00,23.31,27.29,30.02,4.82,23.67,1024.43,2035.94,2754.97,2849.36,3058.78,350.27,350.29,23.75,0000 0000 0000 0000 000000
2014-10-10 01:40:26,0.06,1.76,0.00,23.30,27.29,30.01,4.77,23.82,1024.43,2035.94,2754.10,2848.99,3058.03,349.30,349.20,23.78,0000 0000 0000 0000 000000
2014-10-10 01:45:27,0.07,1.76,0.00,23.31,27.29,30.01,4.81,23.68,1024.43,2035.95,2753.61,2848.55,3057.66,349.66,349.88,23.81,0000 0000 0000 0000 000000
2014-10-10 01:50:29,0.05,1.76,0.00,23.30,27.29,30.00,4.81,23.59,1024.43,2035.98,2753.00,2848.02,3057.03,350.40,350.29,23.84,0000 0000 0000 0000 000000
2014-10-10 01:55:30,0.08,1.76,0.00,23.27,27.29,30.01,4.84,23.62,1024.43,2035.97,2752.18,2847.68,3056.41,349.88,349.82,23.87,0000 0000 0000 0000 000000
2014-10-10 02:00:31,0.06,1.77,0.00,23.29,27.28,30.01,4.76,23.68,1024.43,2035.97,2751.65,2847.04,3055.98,349.55,349.64,23.90,0000 0000 0000 0000 000000
2014-10-10 02:05:32,0.06,1.77,0.00,23.32,27.28,30.00,4.77,23.75,1024.40,2035.96,2750.94,2846.70,3055.22,350.13,350.09,23.93,0000 0000 0000 0000 000000
2014-10-10 02:10:33,0.06,1.77,0.00,23.30,27.28,30.00,4.86,23.73,1024.33,2035.96,2750.29,2846.07,3054.84,350.24,350.14,23.96,0000 0000 0000 0000 000000
2014-10-10 02:15:34,0.04,1.77,0.00,23.28,27.28,30.02,4.80,23.73,1024.18,2035.97,2749.76,2845.97,3054.06,349.70,349.65,23.99,0000 0000 0000 0000 000000
2014-10-10 02:20:35,0.06,1.77,0.00,23.26,27.28,30.02,4.82,23.60,1024.05,2035.97,2749.05,2845.45,3053.91,350.01,349.89,24.02,0000 0000 0000 0000 000000
2014-10-10 02:25:37,0.06,1.77,0.00,23.25,27.28,30.01,4.80,23.91,1024.02,2035.96,2748.61,2845.01,3053.14,350.19,350.09,24.05,0000 0000 0000 0000 000000
2014-10-10 02:30:38,0.03,1.78,0.00,23.30,27.27,30.00,4.79,23.73,1024.04,2035.97,2748.00,2844.74,3052.91,350.57,350.29,24.08,0000 0000 0000 0000 000000
2014-10-10 02:35:39,0.09,1.78,0.00,23.31,27.27,30.00,4.73,23.71,1024.03,2035.96,2747.25,2844.06,3052.10,349.92,349.77,24.11,0000 0000 0000 0000 000000
2014-10-10 02:40:41,0.01,1.78,0.00,23.33,27.27,29.99,4.83,23.81,1023.99,2035.94,2746.92,2843.97,3051.91,350.08,349.91,24.14,0000 0000 0000 0000 000000
2014-10-10 02:45:42,0.09,1.78,0.00,23.31,27.27,30.01,4.77,23.76,1024.00,2035.97,2746.19,2843.53,3051.24,349.72,349.60,24.16,0000 0000 0000 0000 000000
2014-10-10 02:50:43,0.03,1.78,0.00,23.28,27.27,30.00,4.76,23.73,1023.97,2035.98,2745.91,2843.02,3050.98,349.97,349.41,24.19,0000 0000 0000 0000 000000
2014-10-10 02:55:45,0.05,1.78,0.00,23.30,27.27,30.00,4.84,23.69,1023.95,2035.97,2745.19,2842.94,3050.42,350.39,350.16,24.22,0000 0000 0000 0000 000000
2014-10-10 03:00:46,0.06,1.79,0.00,23.26,27.27,30.00,4.76,23.78,1023.96,2035.97,2744.83,2842.19,3049.99,350.19,350.05,24.25,0000 0000 0000 0000 000000
2014-10-10 03:05:47,0.04,1.79,0.00,23.27,27.27,29.98,4.90,23.76,1023.96,2035.94,2744.11,2841.99,3049.48,350.26,350.12,24.28,0000 0000 0000 0000 000000
2014-10-10 03:10:48,0.06,1.79,0.00,23.30,27.27,29.99,4.83,23.63,1023.96,2035.98,2743.73,2841.60,3049.02,350.19,349.98,24.31,0000 0000 0000 0000 000000
2014-10-10 03:15:49,0.04,1.79,0.00,23.26,27.27,29.98,4.80,23.60,1023.96,2035.98,2743.06,2841.03,3048.83,350.12,350.07,24.34,0000 0000 0000 0000 000000
2014-10-10 03:20:51,0.03,1.79,0.00,23.26,27.27,29.97,4.86,23.74,1023.95,2035.97,2742.81,2840.99,3048.09,350.27,350.24,24.37,0000 0000 0000 0000 000000
2014-10-10 03:25:52,0.06,1.79,0.00,23.28,27.27,29.98,4.81,23.73,1023.95,2035.98,2742.08,2840.48,3047.99,350.24,350.16,24.40,0000 0000 0000 0000 000000
2014-10-10 03:30:53,0.04,1.79,0.00,23.26,27.27,29.98,4.84,23.63,1023.95,2035.99,2741.91,2840.03,3047.50,349.82,349.92,24.43,0000 0000 0000 0000 000000
2014-10-10 03:35:54,0.03,1.80,0.00,23.27,27.27,29.97,4.72,23.69,1023.95,2035.98,2741.26,2839.96,3047.02,349.83,349.74,24.46,0000 0000 0000 0000 000000
2014-10-10 03:40:56,0.06,1.80,0.00,23.28,27.27,29.96,4.71,23.59,1023.95,2035.97,2740.97,2839.28,3046.77,349.77,349.46,24.49,0000 0000 0000 0000 000000
2014-10-10 03:45:57,0.05,1.80,0.00,23.26,27.27,29.97,4.80,23.75,1023.94,2035.98,2740.23,2839.01,3046.08,349.86,349.53,24.52,0000 0000 0000 0000 000000
2014-10-10 03:50:58,0.00,1.80,0.00,23.28,27.26,29.98,4.79,23.87,1023.94,2035.98,2739.99,2838.99,3046.00,350.30,350.00,24.55,0000 0000 0000 0000 000000
2014-10-10 03:55:59,0.09,1.80,0.00,23.29,27.26,29.98,4.82,23.88,1023.95,2035.98,2739.40,2838.47,3045.49,350.38,350.23,24.57,0000 0000 0000 0000 000000
2014-10-10 04:01:00,0.03,1.80,0.00,23.27,27.26,29.98,4.73,23.87,1023.95,2035.97,2739.01,2838.02,3045.03,349.82,349.63,24.60,0000 0000 0000 0000 000000
2014-10-10 04:06:02,0.01,1.80,0.00,23.29,27.25,29.99,4.82,23.84,1023.95,2035.99,2738.85,2837.99,3044.98,350.26,350.17,24.63,0000 0000 0000 0000 000000
2014-10-10 04:11:03,0.08,1.81,0.00,23.31,27.25,29.98,4.72,23.64,1023.99,2035.98,2738.12,2837.65,3044.42,350.32,350.31,24.66,0000 0000 0000 0000 000000
2014-10-10 04:16:05,0.03,1.81,0.00,23.32,27.25,29.98,4.83,23.71,1024.26,2035.98,2737.94,2837.04,3044.01,350.31,350.22,24.69,0000 0000 0000 0000 000000
2014-10-10 04:21:06,0.03,1.81,0.00,23.31,27.25,29.97,4.79,23.54,1024.37,2035.99,2737.19,2837.00,3043.91,349.86,349.81,24.72,0000 0000 0000 0000 000000
2014-10-10 04:26:07,0.08,1.81,0.00,23.31,27.25,29.99,4.81,23.61,1024.42,2035.98,2736.82,2836.46,3043.17,350.12,349.83,24.75,0000 0000 0000 0000 000000
2014-10-10 04:31:09,0.03,1.81,0.00,23.30,27.25,29.98,4.83,23.62,1024.43,2035.96,2736.08,2836.01,3042.97,350.34,350.21,24.78,0000 0000 0000 0000 000000
2014-10-10 04:36:10,0.03,1.81,0.00,23.31,27.25,29.99,4.85,23.60,1024.43,2035.97,2735.88,2835.94,3042.39,350.08,350.10,24.81,0000 0000 0000 0000 000000
2014-10-10 04:41:11,0.08,1.82,0.00,23.26,27.25,29.98,4.84,23.68,1024.44,2035.97,2735.07,2835.17,3042.00,349.70,349.83,24.84,0000 0000 0000 0000 000000
2014-10-10 04:46:13,0.02,1.82,0.00,23.28,27.25,29.97,4.78,23.62,1024.45,2035.96,2734.93,2835.00,3041.71,350.00,350.31,24.87,0000 0000 0000 0000 000000
2014-10-10 04:51:14,0.06,1.82,0.00,23.29,27.25,29.97,4.84,23.67,1024.45,2035.98,2734.13,2834.86,3041.05,350.20,350.22,24.90,0000 0000 0000 0000 000000
2014-10-10 04:56:15,0.05,1.82,0.00,23.29,27.25,29.97,4.75,23.54,1024.44,2035.98,2733.87,2834.13,3040.88,349.96,349.98,24.93,0000 0000 0000 0000 000000
2014-10-10 05:01:16,0.05,1.82,0.00,23.29,27.25,29.97,4.86,23.63,1024.44,2035.99,2733.19,2833.99,3040.13,350.36,350.30,24.96,0000 0000 0000 0000 000000
2014-10-10 05:06:17,0.05,1.82,0.00,23.27,27.25,29.96,4.77,23.61,1024.45,2035.98,2732.81,2833.59,3039.97,349.75,349.79,24.98,0000 0000 0000 0000 000000
2014-10-10 05:11:19,0.06,1.82,0.00,23.23,27.25,29.95,4.83,23.69,1024.43,2035.98,2732.06,2833.02,3039.29,349.88,349.89,25.01,0000 0000 0000 0000 000000
2014-10-10 05:16:20,0.01,1.82,0.00,23.27,27.25,29.95,4.85,23.70,1024.43,2035.98,2731.87,2832.88,3038.97,350.21,350.31,25.04,0000 0000 0000 0000 000000
2014-10-10 05:21:21,0.09,1.83,0.00,23.26,27.25,29.93,4.83,23.73,1024.42,2035.96,2731.13,2832.10,3038.33,350.42,350.48,25.07,0000 0000 0000 0000 000000
2014-10-10 05:26:22,0.02,1.83,0.00,23.25,27.25,29.94,4.80,23.72,1024.39,2035.96,2730.80,2831.99,3037.99,350.05,350.14,25.10,0000 0000 0000 0000 000000
2014-10-10 05:31:23,0.05,1.83,0.00,23.22,27.25,29.94,4.84,23.73,1024.31,2035.96,2730.11,2831.79,3037.53,349.87,349.95,25.13,0000 0000 0000 0000 000000
2014-10-10 05:36:25,0.05,1.83,0.00,23.24,27.25,29.95,4.82,23.73,1024.37,2035.95,2729.77,2831.12,3037.03,349.58,349.62,25.16,0000 0000 0000 0000 000000
2014-10-10 05:41:26,0.04,1.83,0.00,23.27,27.25,29.94,4.84,23.75,1024.37,2035.97,2729.05,2831.00,3036.88,350.65,350.70,25.19,0000 0000 0000 0000 000000
2014-10-10 05:46:27,0.05,1.83,0.00,23.26,27.25,29.95,4.79,23.61,1024.07,2035.97,2728.85,2830.75,3036.20,349.91,349.84,25.22,0000 0000 0000 0000 000000
2014-10-10 05:51:28,0.07,1.84,0.00,23.27,27.25,29.95,4.80,23.80,1023.96,2035.97,2728.05,2830.03,3035.85,349.78,349.77,25.25,0000 0000 0000 0000 000000
2014-10-10 05:56:29,0.04,1.84,0.00,23.25,27.25,29.95,4.70,23.73,1023.96,2035.97,2727.76,2829.92,3035.18,349.92,350.04,25.28,0000 0000 0000 0000 000000
2014-10-10 06:01:31,0.06,1.84,0.00,23.26,27.25,29.94,4.85,23.73,1023.95,2035.96,2727.05,2829.22,3034.96,349.82,349.72,25.31,0000 0000 0000 0000 000000
2014-10-10 06:06:33,0.05,1.84,0.00,23.29,27.25,29.95,4.85,23.80,1023.95,2035.96,2726.58,2829.00,3034.25,350.35,350.16,25.34,0000 0000 0000 0000 000000
2014-10-10 06:11:34,0.05,1.84,0.00,23.24,27.25,29.96,4.88,23.63,1023.96,2035.97,2725.97,2828.62,3033.88,350.50,350.41,25.37,0000 0000 0000 0000 000000
2014-10-10 06:16:35,0.07,1.84,0.00,23.24,27.25,29.96,4.81,23.66,1024.08,2035.96,2725.33,2828.03,3033.11,350.08,350.40,25.39,0000 0000 0000 0000 000000
2014-10-10 06:21:37,0.00,1.85,0.00,23.27,27.25,29.96,4.89,23.66,1024.36,2035.96,2724.97,2827.97,3032.97,350.23,350.11,25.42,0000 0000 0000 0000 000000
2014-10-10 06:26:38,0.11,1.85,0.00,23.28,27.25,29.96,4.83,23.65,1024.37,2035.97,2724.19,2827.22,3032.25,349.93,349.73,25.45,0000 0000 0000 0000 000000
2014-10-10 06:31:39,0.01,1.85,0.00,23.29,27.25,29.95,4.76,23.63,1024.18,2035.96,2723.81,2827.00,3031.98,349.95,349.88,25.48,0000 0000 0000 0000 000000
2014-10-10 06:36:40,0.07,1.85,0.00,23.27,27.25,29.95,4.76,23.56,1024.06,2035.95,2723.05,2826.70,3031.45,349.97,349.64,25.51,0000 0000 0000 0000 000000
2014-10-10 06:41:41,0.04,1.85,0.00,23.27,27.25,29.95,4.84,23.69,1024.04,2035.98,2722.83,2826.04,3031.01,350.27,350.16,25.54,0000 0000 0000 0000 000000
2014-10-10 06:46:43,0.05,1.85,0.00,23.31,27.25,29.96,4.79,23.68,1024.08,2035.97,2722.10,2825.92,3030.47,349.87,349.89,25.57,0000 0000 0000 0000 000000
2014-10-10 06:51:44,0.06,1.86,0.00,23.30,27.25,29.95,4.79,23.52,1024.10,2035.98,2721.74,2825.26,3030.00,350.27,350.19,25.60,0000 0000 0000 0000 000000
2014-10-10 06:56:45,0.04,1.86,0.00,23.32,27.25,29.95,4.81,23.52,1024.08,2035.99,2721.04,2825.00,3029.62,350.49,350.25,25.63,0000 0000 0000 0000 000000
2014-10-10 07:01:46,0.06,1.86,0.00,23.29,27.25,29.96,4.83,23.63,1023.97,2035.99,2720.58,2824.77,3029.02,350.56,350.36,25.66,0000 0000 0000 0000 000000
2014-10-10 07:06:47,0.04,1.86,0.00,23.26,27.25,29.94,4.75,23.63,1023.94,2035.98,2720.00,2824.06,3028.80,349.91,349.82,25.69,0000 0000 0000 0000 000000
2014-10-10 07:11:49,0.04,1.86,0.00,23.28,27.25,29.94,4.75,23.59,1023.94,2035.98,2719.68,2823.99,3028.13,349.70,349.66,25.72,0000 0000 0000 0000 000000
2014-10-10 07:16:50,0.06,1.86,0.00,23.27,27.24,29.94,4.77,23.58,1023.94,2035.98,2719.01,2823.56,3027.91,350.02,349.80,25.75,0000 0000 0000 0000 000000
2014-10-10 07:21:51,0.06,1.86,0.00,23.25,27.24,29.93,4.75,23.73,1023.94,2035.98,2718.45,2823.02,3027.20,349.22,349.07,25.78,0000 0000 0000 0000 000000
2014-10-10 07:26:53,0.01,1.87,0.00,23.27,27.24,29.94,4.75,23.53,1023.94,2035.95,2718.00,2822.89,3026.98,349.59,349.48,25.80,0000 0000 0000 0000 000000
2014-10-10 07:31:54,0.09,1.87,0.00,23.28,27.24,29.93,4.73,23.59,1023.93,2035.98,2717.60,2822.26,3026.53,350.53,350.32,25.83,0000 0000 0000 0000 000000
2014-10-10 07:36:55,0.02,1.87,0.00,23.26,27.23,29.95,4.76,23.58,1023.93,2035.98,2717.01,2822.00,3026.00,349.71,349.62,25.86,0000 0000 0000 0000 000000
2014-10-10 07:41:56,0.03,1.87,0.00,23.28,27.23,29.93,4.80,23.71,1023.93,2035.97,2716.55,2821.88,3025.84,350.02,349.82,25.89,0000 0000 0000 0000 000000
2014-10-10 07:46:58,0.07,1.87,0.00,23.27,27.23,29.94,4.80,23.58,1023.94,2035.97,2716.02,2821.18,3025.11,349.97,349.82,25.92,0000 0000 0000 0000 000000
2014-10-10 07:51:59,0.02,1.87,0.00,23.27,27.22,29.93,4.68,23.45,1023.92,2035.97,2715.70,2821.00,3024.98,349.77,349.64,25.95,0000 0000 0000 0000 000000
2014-10-10 07:57:00,0.04,1.87,0.00,23.32,27.23,29.95,4.79,23.63,1023.93,2035.97,2715.13,2820.94,3024.61,350.10,350.04,25.98,0000 0000 0000 0000 000000
2014-10-10 08:02:01,0.06,1.88,0.00,23.32,27.23,29.95,4.65,23.65,1023.94,2035.98,2714.95,2820.21,3024.04,349.63,349.38,26.01,0000 0000 0000 0000 000000
2014-10-10 08:07:02,0.04,1.88,0.00,23.30,27.22,29.95,4.71,23.56,1023.94,2035.98,2714.16,2820.01,3023.96,349.30,349.10,26.04,0000 0000 0000 0000 000000
2014-10-10 08:12:03,0.03,1.88,0.00,23.32,27.22,29.95,4.79,23.72,1023.94,2035.98,2713.97,2819.96,3023.24,349.88,349.49,26.07,0000 0000 0000 0000 000000
2014-10-10 08:17:04,0.07,1.88,0.00,23.32,27.22,29.95,4.78,23.61,1023.94,2035.98,2713.24,2819.35,3022.99,349.61,349.42,26.10,0000 0000 0000 0000 000000
2014-10-10 08:22:06,0.03,1.88,0.00,23.30,27.22,29.95,4.81,23.60,1023.94,2035.98,2712.96,2819.01,3022.54,349.96,349.94,26.13,0000 0000 0000 0000 000000
2014-10-10 08:27:07,0.05,1.88,0.00,23.29,27.22,29.95,4.77,23.61,1023.94,2035.98,2712.30,2818.90,3022.01,349.83,349.63,26.16,0000 0000 0000 0000 000000
2014-10-10 08:32:08,0.05,1.88,0.00,23.29,27.22,29.94,4.90,23.73,1023.94,2035.97,2711.91,2818.21,3021.71,350.30,350.00,26.19,0000 0000 0000 0000 000000
2014-10-10 08:37:10,0.05,1.89,0.00,23.25,27.22,29.94,4.79,23.57,1023.94,2035.98,2711.13,2818.00,3021.04,350.44,350.35,26.22,0000 0000 0000 0000 000000
2014-10-10 08:42:11,0.01,1.89,0.00,23.28,27.22,29.94,4.80,23.58,1023.94,2035.97,2710.92,2817.85,3020.93,349.97,349.70,26.24,0000 0000 0000 0000 000000
2014-10-10 08:47:12,0.10,1.89,0.00,23.30,27.22,29.92,4.80,23.71,1023.94,2035.99,2710.12,2817.17,3020.14,349.82,349.51,26.27,0000 0000 0000 0000 000000
2014-10-10 08:52:13,0.01,1.89,0.00,23.26,27.22,29.94,4.84,23.68,1023.94,2035.99,2709.97,2817.00,3020.00,350.37,350.40,26.30,0000 0000 0000 0000 000000
2014-10-10 08:57:15,0.07,1.89,0.00,23.28,27.22,29.92,4.83,23.64,1023.94,2035.99,2709.27,2816.87,3019.61,350.05,349.86,26.33,0000 0000 0000 0000 000000
2014-10-10 09:02:16,0.05,1.89,0.00,23.27,27.22,29.94,4.76,23.66,1023.94,2035.99,2708.94,2816.15,3019.01,349.85,349.71,26.36,0000 0000 0000 0000 000000
2014-10-10 09:07:17,0.05,1.90,0.00,23.25,27.22,29.94,4.86,23.66,1023.94,2035.99,2708.22,2816.00,3018.75,350.17,349.94,26.39,0000 0000 0000 0000 000000
2014-10-10 09:12:19,0.02,1.90,0.00,23.27,27.22,29.94,4.81,23.68,1023.94,2035.99,2707.97,2815.96,3018.06,350.36,350.29,26.42,0000 0000 0000 0000 000000
2014-10-10 09:17:20,0.07,1.90,0.00,23.27,27.22,29.94,4.83,23.61,1023.94,2035.99,2707.38,2815.41,3017.99,350.18,350.04,26.45,0000 0000 0000 0000 000000
2014-10-10 09:22:21,0.03,1.90,0.00,23.27,27.22,29.93,4.83,23.66,1023.95,2035.99,2707.00,2815.02,3017.59,350.40,350.15,26.48,0000 0000 0000 0000 000000
2014-10-10 09:27:23,0.02,1.90,0.00,23.28,27.22,29.94,4.74,23.63,1023.94,2035.99,2706.63,2814.99,3017.03,349.94,349.78,26.51,0000 0000 0000 0000 000000
2014-10-10 09:32:24,0.03,1.90,0.00,23.29,27.22,29.93,4.81,23.57,1023.94,2035.99,2706.01,2814.73,3016.96,350.07,350.10,26.54,0000 0000 0000 0000 000000
2014-10-10 09:37:25,0.09,1.90,0.00,23.23,27.22,29.94,4.73,23.58,1023.94,2035.99,2705.51,2814.12,3016.32,349.78,349.87,26.57,0000 0000 0000 0000 000000
2014-10-10 09:42:27,0.00,1.90,0.00,23.25,27.22,29.93,4.86,23.58,1023.94,2035.99,2705.02,2814.00,3016.00,350.31,350.14,26.60,0000 0000 0000 0000 000000
2014-10-10 09:47:28,0.03,1.90,0.00,23.30,27.22,29.91,4.87,23.67,1023.94,2035.99,2704.87,2813.85,3015.79,350.05,349.99,26.63,0000 0000 0000 0000 000000
2014-10-10 09:52:29,0.08,1.91,0.00,23.27,27.22,29.93,4.87,23.64,1023.94,2035.99,2704.10,2813.19,3015.05,350.07,349.94,26.66,0000 0000 0000 0000 000000
2014-10-10 09:57:30,0.01,1.91,0.00,23.27,27.22,29.93,4.85,23.61,1023.94,2035.99,2703.92,2813.01,3014.95,350.14,350.06,26.68,0000 0000 0000 0000 000000
2014-10-10 10:02:32,0.05,1.91,0.00,23.27,27.22,29.93,4.74,23.60,1023.94,2035.99,2703.27,2812.94,3014.49,349.97,349.82,26.71,0000 0000 0000 0000 000000
2014-10-10 10:07:33,0.05,1.91,0.00,23.25,27.22,29.94,4.74,23.57,1023.94,2035.99,2702.99,2812.29,3014.01,349.84,349.61,26.74,0000 0000 0000 0000 000000
2014-10-10 10:12:34,0.03,1.91,0.00,23.24,27.22,29.92,4.75,23.59,1023.91,2035.99,2702.48,2812.01,3013.85,349.88,349.75,26.77,0000 0000 0000 0000 000000
2014-10-10 10:17:36,0.03,1.91,0.00,23.27,27.22,29.93,4.74,23.57,1023.86,2035.99,2702.01,2811.98,3013.13,349.61,349.30,26.80,0000 0000 0000 0000 000000
2014-10-10 10:22:37,0.03,1.91,0.00,23.24,27.22,29.94,4.78,23.61,1023.76,2035.99,2701.91,2811.69,3013.00,350.17,349.75,26.83,0000 0000 0000 0000 000000
2014-10-10 10:27:38,0.05,1.92,0.00,23.21,27.22,29.95,4.77,23.64,1023.55,2035.99,2701.17,2811.10,3012.95,350.16,350.18,26.86,0000 0000 0000 0000 000000
2014-10-10 10:32:40,0.03,1.92,0.00,23.22,27.22,29.93,4.78,23.71,1023.49,2035.99,2701.00,2811.00,3012.28,350.05,349.66,26.89,0000 0000 0000 0000 000000
2014-10-10 10:37:41,0.03,1.92,0.00,23.22,27.22,29.94,4.85,23.73,1023.48,2035.99,2700.50,2810.96,3012.01,349.99,349.78,26.92,0000 0000 0000 0000 000000
2014-10-10 10:42:43,0.04,1.92,0.00,23.22,27.22,29.93,4.74,23.51,1023.48,2035.99,2700.01,2810.51,3011.92,349.77,349.42,26.95,0000 0000 0000 0000 000000
2014-10-10 10:47:44,0.04,1.92,0.00,23.25,27.22,29.93,4.81,23.65,1023.48,2035.99,2699.98,2810.06,3011.17,350.05,349.63,26.98,0000 0000 0000 0000 000000
2014-10-10 10:52:46,0.03,1.92,0.00,23.26,27.22,29.94,4.84,23.61,1023.53,2035.99,2699.44,2810.00,3011.00,350.29,349.93,27.01,0000 0000 0000 0000 000000
2014-10-10 10:57:47,0.01,1.92,0.00,23.22,27.22,29.94,4.92,23.64,1023.65,2035.99,2699.01,2809.93,3010.94,350.57,350.42,27.04,0000 0000 0000 0000 000000
2014-10-10 11:02:48,0.08,1.92,0.00,23.24,27.22,29.96,4.72,23.57,1023.78,2035.99,2698.82,2809.27,3010.38,349.92,349.68,27.07,0000 0000 0000 0000 000000
2014-10-10 11:07:50,0.03,1.93,0.00,23.23,27.22,29.94,4.78,23.65,1023.82,2035.99,2698.08,2809.01,3010.01,349.97,349.87,27.09,0000 0000 0000 0000 000000
2014-10-10 11:12:51,0.00,1.93,0.00,23.23,27.22,29.94,4.80,23.57,1023.68,2035.99,2697.99,2808.99,3009.96,349.70,349.46,27.12,0000 0000 0000 0000 000000
2014-10-10 11:17:52,0.07,1.93,0.00,23.26,27.22,29.94,4.82,23.62,1023.67,2035.99,2697.50,2808.69,3009.34,349.86,349.57,27.15,0000 0000 0000 0000 000000
2014-10-10 11:22:53,0.04,1.93,0.00,23.24,27.22,29.94,4.73,23.61,1023.59,2035.99,2697.01,2808.05,3009.00,349.76,349.59,27.18,0000 0000 0000 0000 000000
2014-10-10 11:27:54,0.04,1.93,0.00,23.25,27.22,29.92,4.85,23.61,1023.50,2035.99,2696.59,2807.99,3008.70,350.25,350.02,27.21,0000 0000 0000 0000 000000
2014-10-10 11:32:56,0.05,1.93,0.00,23.28,27.22,29.93,4.77,23.52,1023.49,2035.99,2696.01,2807.63,3008.06,349.78,349.57,27.24,0000 0000 0000 0000 000000
2014-10-10 11:37:57,0.05,1.93,0.00,23.23,27.21,29.93,4.79,23.58,1023.49,2035.99,2695.42,2807.04,3007.95,349.75,349.64,27.27,0000 0000 0000 0000 000000
2014-10-10 11:42:58,0.03,1.93,0.00,23.24,27.22,29.93,4.79,23.63,1023.47,2035.99,2694.98,2806.93,3007.23,349.89,349.69,27.30,0000 0000 0000 0000 000000
2014-10-10 11:48:00,0.07,1.94,0.00,23.24,27.22,29.93,4.81,23.81,1023.46,2035.99,2694.35,2806.35,3007.00,349.76,349.71,27.33,0000 0000 0000 0000 000000
2014-10-10 11:53:01,0.02,1.94,0.00,23.20,27.22,29.96,4.72,23.64,1023.46,2035.99,2693.99,2806.01,3006.74,349.99,349.63,27.36,0000 0000 0000 0000 000000
2014-10-10 11:58:02,0.05,1.94,0.00,23.23,27.22,29.93,4.79,23.72,1023.48,2035.99,2693.34,2805.92,3006.06,349.59,349.17,27.39,0000 0000 0000 0000 000000
2014-10-10 12:03:03,0.05,1.94,0.00,23.27,27.22,29.94,4.82,23.63,1023.56,2035.99,2692.97,2805.25,3005.95,350.21,349.98,27.42,0000 0000 0000 0000 000000
2014-10-10 12:08:05,0.06,1.94,0.00,23.23,27.22,29.93,4.84,23.67,1023.60,2035.99,2692.26,2805.00,3005.25,350.56,350.31,27.45,0000 0000 0000 0000 000000
2014-10-10 12:13:06,0.01,1.94,0.00,23.22,27.22,29.91,4.82,23.71,1023.55,2035.99,2691.99,2804.90,3005.00,349.94,349.90,27.48,0000 0000 0000 0000 000000
2014-10-10 12:18:07,0.09,1.95,0.00,23.26,27.22,29.92,4.87,23.73,1023.55,2035.99,2691.43,2804.19,3004.70,349.99,349.58,27.50,0000 0000 0000 0000 000000
2014-10-10 12:23:09,0.02,1.95,0.00,23.24,27.22,29.93,4.77,23.64,1023.49,2035.99,2690.99,2804.00,3004.04,349.67,349.38,27.53,0000 0000 0000 0000 000000
2014-10-10 12:28:10,0.04,1.95,0.00,23.23,27.22,29.91,4.78,23.72,1023.47,2035.99,2690.39,2803.91,3003.97,350.05,349.83,27.56,0000 0000 0000 0000 000000
2014-10-10 12:33:11,0.08,1.95,0.00,23.26,27.22,29.92,4.80,23.69,1023.47,2035.99,2689.97,2803.24,3003.39,349.92,349.52,27.59,0000 0000 0000 0000 000000
2014-10-10 12:38:12,0.04,1.95,0.00,23.26,27.22,29.93,4.73,23.68,1023.47,2035.99,2689.27,2802.98,3002.96,349.72,349.43,27.62,0000 0000 0000 0000 000000
2014-10-10 12:43:13,0.07,1.95,0.00,23.25,27.22,29.93,4.89,23.69,1023.47,2035.99,2688.89,2802.47,3002.38,350.12,349.94,27.65,0000 0000 0000 0000 000000
2014-10-10 12:48:14,0.04,1.96,0.00,23.23,27.22,29.92,4.82,23.65,1023.46,2035.99,2688.12,2802.01,3002.00,349.89,349.71,27.68,0000 0000 0000 0000 000000
2014-10-10 12:53:16,0.01,1.96,0.00,23.25,27.22,29.93,4.79,23.72,1023.46,2035.99,2687.96,2801.98,3001.83,350.12,349.95,27.71,0000 0000 0000 0000 000000
2014-10-10 12:58:17,0.09,1.96,0.00,23.27,27.22,29.93,4.71,23.68,1023.45,2035.99,2687.17,2801.44,3001.11,349.93,349.70,27.74,0000 0000 0000 0000 000000
2014-10-10 13:03:18,0.02,1.96,0.00,23.24,27.21,29.93,4.77,23.63,1023.45,2035.99,2686.91,2801.01,3000.93,349.68,349.35,27.77,0000 0000 0000 0000 000000